OOSAA EBGB-ZZZZ

Flight info

Callsign OOSAA
Flight time N/A
Altitude
Route
Aircraft DA40

Departure

Time 2026-04-25 20:14
Airport Grimbergen Airfield (EBGB)

Arrival

Time N/A
Airport ZZZZ
Time Latitude Longitude Altitude Speed Heading
2026-04-25 20:14 50.90189 4.46519 706 ft 71 kts 278°
2026-04-25 20:14 50.90580 4.46188 845 ft 80 kts 18°
2026-04-25 20:15 50.90929 4.46958 910 ft 96 kts 64°
2026-04-25 20:15 50.91188 4.47938 951 ft 96 kts 63°
2026-04-25 20:15 50.91558 4.48762 1026 ft 90 kts 27°
2026-04-25 20:15 50.92164 4.48777 1132 ft 90 kts 340°
2026-04-25 20:16 50.92776 4.48328 1037 ft 103 kts 339°
2026-04-25 20:16 50.93256 4.47509 1090 ft 112 kts 292°
2026-04-25 20:16 50.93004 4.46512 1216 ft 106 kts 178°
2026-04-25 20:16 50.92515 4.47407 972 ft 119 kts 94°
2026-04-25 20:17 50.92511 4.48279 913 ft 118 kts 86°
2026-04-25 20:17 50.92366 4.49918 952 ft 106 kts 112°
2026-04-25 20:17 50.92111 4.50528 857 ft 97 kts 126°
2026-04-25 20:17 50.91627 4.50931 702 ft 79 kts 202°
2026-04-25 20:18 50.91262 4.50336 371 ft 77 kts 251°
2026-04-25 20:18 50.91055 4.49599 134 ft 67 kts 252°
2026-04-25 20:18 50.90894 4.49042 114 ft 59 kts 242°
2026-04-25 20:18 50.90610 4.48357 151 ft 87 kts 241°
2026-04-25 20:19 50.90272 4.47409 147 ft 109 kts 242°
2026-04-25 20:19 50.90000 4.46275 281 ft 103 kts 272°
2026-04-25 20:19 50.90407 4.45822 675 ft 85 kts 15°
2026-04-25 20:19 50.90845 4.46585 732 ft 107 kts 56°
2026-04-25 20:20 50.91250 4.47665 758 ft 118 kts 56°
2026-04-25 20:20 50.91661 4.48789 875 ft 117 kts 59°
2026-04-25 20:20 50.92008 4.49974 1034 ft 119 kts 63°
2026-04-25 20:20 50.92407 4.51165 1024 ft 124 kts 58°
2026-04-25 20:21 50.92697 4.52272 984 ft 96 kts 98°
2026-04-25 20:21 50.92196 4.52672 831 ft 84 kts 204°
2026-04-25 20:21 50.91815 4.52045 620 ft 76 kts 241°
2026-04-25 20:21 50.91558 4.51333 433 ft 76 kts 247°
2026-04-25 20:22 50.91329 4.50558 221 ft 77 kts 249°
2026-04-25 20:22 50.91191 4.50075 122 ft 63 kts 249°
2026-04-25 20:22 50.90959 4.49275 124 ft 77 kts 247°
2026-04-25 20:22 50.90718 4.48539 363 ft 75 kts 244°
2026-04-25 20:23 50.90583 4.47742 567 ft 77 kts 295°
2026-04-25 20:23 50.90883 4.46946 713 ft 91 kts 311°
2026-04-25 20:23 50.91311 4.46147 880 ft 99 kts 313°
2026-04-25 20:23 50.91801 4.45290 937 ft 113 kts 316°
2026-04-25 20:24 50.92303 4.44293 1002 ft 119 kts 300°
2026-04-25 20:24 50.92594 4.42967 944 ft 130 kts 290°
2026-04-25 20:24 50.92809 4.41808 958 ft 92 kts 294°
2026-04-25 20:24 50.92998 4.40996 853 ft 68 kts 297°
2026-04-25 20:25 50.93184 4.40316 785 ft 68 kts 292°
2026-04-25 20:25 50.93391 4.39621 620 ft 67 kts 304°
2026-04-25 20:25 50.93676 4.39098 455 ft 64 kts 328°
2026-04-25 20:25 50.94098 4.38954 232 ft 64 kts
2026-04-25 20:26 50.94521 4.39082 70 ft 56 kts
2026-04-25 20:26 50.94783 4.39153 64 ft 13 kts 12°
2026-04-25 20:26 50.94828 4.39172 64 ft 4 kts 37°
2026-04-25 20:26 50.94843 4.39232 64 ft 2 kts 81°
2026-04-25 20:27 50.94849 4.39307 64 ft 17 kts 80°
2026-04-25 20:27 50.94841 4.39406 60 ft 0 kts 143°